www.pogodaiklimat.ru

Погода и климат >> Архив погоды >> Россия >> Хабаровский край >> Сукпай


ПОГОДА в Сукпае

  • Прогноз погоды в Сукпае
  • Монитор погоды в Сукпае

АРХИВ ПОГОДЫ в Сукпае

Время (UTC), дата Ветер
(напр.,м/с)
 
Видим.   Явления Облачность Т
(С)
Тd
(С)
f
(%)
Тe
(С)
Тes
(С)
Комфортность P
(гПа)
Po
(гПа)
Тmin
(С)
Tmax
(С)
R
(мм)
R24
(мм)
S
(см)
15 16.09 штиль 0 50 км н/о -0.9 -0.9 100 -2 -2 1017.5 958.7
18 16.09 штиль 0 50 км ясно -3.9 -3.9 100 -5 -5 1018.2 958.7
21 16.09 штиль 0 50 км ясно -5.3 -5.3 100 -6 -6 1019.3 959.1 -5.5
00 17.09 штиль 0 50 км ясно +8.3 +1.7 63 +8 +15 1016.9 960.0
06 17.09 СЗ 3 50 км ясно +15.6 -4.4 25 +15 +19 1014.1 958.7
09 17.09 штиль 0 50 км ясно +8.4 +1.6 62 +8 +8 1014.4 957.3 +15.9
12 17.09 штиль 0 50 км ясно -1.1 -1.1 100 -3 -3 1017.5 958.7
15 17.09 штиль 0 50 км ясно -3.4 -3.4 100 -5 -5 1018.1 958.7
18 17.09 штиль 0 50 км ясно -5.4 -5.4 100 -7 -7 1015.7 956.0
21 17.09 штиль 0 50 км ясно -6.2 -6.2 100 -7 -7 1013.2 953.1 -6.8
00 18.09 Ю 1 50 км 10/0 600 м
[]
+4.7 +0.8 76 +4 +4 1009.2 952.0
03 18.09 СВ 1 4000 м слаб. ливневой дождь 10/10 600 м
[Cb cap]
+6.8 +6.8 100 +6 +6 1007.3 950.7
06 18.09 З 1 50 км 10/10 600 м
[Sc]
+6.1 +5.2 94 +5 +5 1005.9 949.3
09 18.09 Ю 1 50 км {ливн. осадки} 8/8 600 м
[Cb cap]
+2.8 +2.4 97 +1 +1 1006.7 949.3 +8.7 10
12 18.09 штиль 0 50 км {ливн. осадки} 10/10 600 м
[Sc diur, vesp]
-0.1 -0.1 100 -2 -2 1006.7 948.3
15 18.09 штиль 0 50 км {ливн. осадки} 10/10
[Sc diur, vesp]
+0.2 +0.2 100 -1 -1 1005.9 948.0
18 18.09 С 1 50 км {ливн. осадки} 10/10
[Cu hum]
+0.5 +0.5 100 -2 -2 1002.9 945.3
21 18.09 штиль 0 50 км слаб. дождь 10/10 600 м
[Sc]
+0.5 +0.5 100 -1 -1 1001.6 943.7 -0.5 0.8
00 19.09 С 1 50 км {дождь} 10/10 600 м
[Sc]
+3.2 +2.8 97 +1 +1 1000.9 943.6
03 19.09 СЗ 1 2000 м слаб. дождь 10/0
[As trans]
+3.2 +2.8 97 +1 +1 1002.3 945.3
06 19.09 З 2 10 км слаб. дождь 10/0
[As trans]
+3.9 +2.9 93 +1 +1 1003.7 946.7
09 19.09 З 2 10 км слаб. дождь 10/8 600 м
[Frnb As trans]
+3.4 +3.3 99 0 0 1005.2 948.0 +4.2 4
12 19.09 З 4-11
{12}
10 км слаб. дождь 10/0 600 м
[]
+4.5 +4.0 97 0 0 1007.1 949.7
15 19.09 З 2
{11}
10 км слаб. дождь 10/0 600 м
[As op]
+5.2 +4.8 97 +2 +2 1009.5 952.2
18 19.09 З 3
{13}
10 км слаб. дождь 10/0 600 м
[As op]
+5.3 +4.6 95 +2 +2 1010.9 953.5
21 19.09 СЗ 3 50 км слаб. дождь 10/10 600 м
[Sc]
+5.4 +4.9 97 +2 +2 1013.3 955.7 +3.4 6
00 20.09 З 2 50 км 10/10 600 м
[Sc]
+7.4 +4.9 84 +5 +5 1017.0 960.0
03 20.09 СЗ 4 50 км 8/8 600 м
[Cu hum]
+10.9 +3.4 60 +9 +11 1017.7 961.3
06 20.09 З 3 50 км 5/5 600 м
[Sc diur, vesp]
+13.0 +1.9 47 +12 +14 1017.3 961.3
09 20.09 штиль 0 50 км 8/8 600 м
[Sc diur, vesp]
+8.4 +5.7 83 +8 +8 1021.0 964.0 +13.7
12 20.09 штиль 0 50 км ясно +0.8 +0.8 100 -1 -1 1024.1 965.3
15 20.09 штиль 0 50 км ясно -2.3 -2.3 100 -4 -4 1026.3 966.7
18 20.09 штиль 0 500 м туман ?/? -0.6 -0.6 100 -2 -2 1025.9 966.7
21 20.09 штиль 0 500 м туман ?/? -0.6 -0.6 100 -2 -2 1025.1 965.4 -2.7
00 21.09 В 1 50 км 5/0 600 м
[Ci ing]
+5.4 +3.1 85 +4 +7 1023.1 965.3
03 21.09 В 1 н/о н/о +14.2 +3.3 48 +15 +15 1018.5 962.7
06 21.09 ЮЗ 1 50 км слаб. дождь 10/10 600 м
[Sc]
+10.4 +6.5 77 +10 +10 1017.8 961.3
09 21.09 штиль 0 50 км {дождь} 10/10 600 м
[Sc]
+8.2 +8.2 100 +7 +7 1019.7 962.7 +14.8 0.6
12 21.09 штиль 0 20 км слаб. морось {дождь} 10/10 600 м
[St]
+6.8 +6.8 100 +6 +6 1019.7 962.1
15 21.09 З 1 50 км 10 баллов +6.8 +6.8 100 +6 +6 1021.4 964.0
18 21.09 штиль 0 50 км {морось} 10/10 600 м
[Sc]
+4.9 +4.9 100 +4 +4 1021.8 964.0
21 21.09 штиль 0 50 км 10/10 600 м
[Sc]
+4.3 +4.3 100 +3 +3 1022.7 964.3 +3.4 0.6
00 22.09 штиль 0 50 км 10 баллов +7.8 +7.4 97 +7 +7 1024.0 966.7
03 22.09 З 3 50 км 4 балла +11.9 +2.9 54 +11 +15 1021.7 965.3
06 22.09 СЗ 3 50 км ясно +14.1 +2.3 45 +13 +17 1019.9 964.0
09 22.09 СЗ 3 50 км 1/1 600 м
[Sc diur, vesp]
+10.8 +3.3 60 +9 +9 1022.0 965.3 +14.2
12 22.09 штиль 0 50 км ясно +2.0 +2.0 100 +1 +1 1025.3 966.7
15 22.09 штиль 0 50 км ясно -1.2 -1.9 95 -3 -3 1026.1 966.7
18 22.09 штиль 0 н/о н/о -1.1 -1.1 100 -3 1026.0 966.7
21 22.09 штиль 0 200 м туман ?/? +0.4 +0.4 100 -1 -1 1023.7 964.4 -1.2
00 23.09 ЮВ 1 200 м туман ?/? +2.3 +2.3 100 0 0 1021.5 962.8 -2.8
06 23.09 З 1 50 км 5 баллов +18.1 +3.2 37 +19 +22 1010.7 956.0
09 23.09 штиль 0 50 км ясно +9.6 +8.4 92 +9 +9 1009.4 953.3 +19.2
12 23.09 штиль 0 50 км туман поземный ясно +1.9 +1.9 100 +1 +1 1011.1 953.3

 

Местоположение метеостанции Сукпай (Хабаровский край, Россия): широта 47.70 долгота 137.50 высота над уровнем моря 478 м.

В архиве по умолчанию представлена погода в Сукпае за последнюю неделю. Архивные данные за месяц целиком и за предыдущие месяцы, начиная с января 2011 года, Вы можете получить, выбрав интересующий диапазон дат из раскрывающегося списка и нажав кнопку "Ввод!".


*Определитесь, кто Вы:
робот инопланетянин человек

Внимание! Время в таблицах - всемирное. Для получения местного времени необходимо прибавить поправку, которая равна 10 ч.

Смотрите также архив погоды в соседних городах и на ближайших метеорологических станциях:

Погода в Агзу (Приморский край, Россия) (68 км)
Погода в Гвасюгах (Хабаровский край, Россия) (105 км)
Погода в Тивяку (Хабаровский край, Россия) (107 км)
Погода в Сосуново (Приморский край, Россия) (142 км)
Погода в Бичевой (Хабаровский край, Россия) (142 км)
Погода в Оборе (Хабаровский край, Россия) (146 км)
Погода в Солекуль (Хабаровский край, Россия) (168 км)
Погода в Князе-Волконском (Хабаровский край, Россия) (174 км)
Погода в Георгиевке (Хабаровский край, Россия) (174 км)
Погода в Елабуге (Хабаровский край, Россия) (177 км)

Пояснения к столбцам:

Ветер - указаны скорость ветра в м/с - средняя за 10 мин, порывы в срок и между сроками (в фигурных скобках) и направление, откуда дует ветер: С - северный, СВ - северо-восточный, В - восточный, ЮВ - юго-восточный, Ю - южный, ЮЗ - юго-западный, З - западный, СЗ - северо-западный.
Видимость - горизонтальная дальность видимости в метрах или километрах. При видимости от 1 до 10 км при отсутствии осадков обычно наблюдается дымка, при ухудшении видимости до 1 км и менее - туман. В сухую погоду видимость может ухудшаться дымом, пылью или мглою.
Явления - указаны атмосферные явления, наблюдавшиеся в срок или в последний час перед сроком; фигурными скобками обозначены явления, наблюдавшиеся между сроками (за 1-3 часа до срока); квадратными скобками обозначены град или гололедные отложения с указанием их диаметра в мм.
Облачность - указаны через наклонную черту общая и нижняя облачность в баллах и высота нижней границы облаков в метрах; квадратными скобками обозначены формы облаков: Ci - перистые, Cs - перисто-слоистые, Cc - перисто-кучевые, Ac - высококучевые, As - высокослоистые, Sc - слоисто-кучевые, Ns - слоисто-дождевые, Cu - кучевые, Cb - кучево-дождевые. Подробнее классификацию облаков см. в Атласе облаков (PDF).
T - Температура воздуха - температура, измеренная на высоте 2 м над землей.
Td - Температура точки росы - температура, при понижении до которой содержащийся в воздухе водяной пар достигнет насыщения.
f - Относительная влажность воздуха - влажноcть воздуха, измеренная на высоте 2 м над землей.
Te - Эффективная температура - температура, которую ощущает одетый по сезону человек в тени. Характеристика душности погоды. При расчете учитывается влияние влажности воздуха и скорости ветра на теплоощущения человека.
Tes - Эффективная температура на солнце - температура, которую ощущает человек, с поправкой на солнечный нагрев. Характеристика знойности погоды. Зависит от высоты солнца над горизонтом, облачности и скорости ветра. Ночью, в пасмурную погоду, а также при ветре 12 м/с и более поправка равна нулю.
P - Атмосферное давление - приведенное к уровню моря атмосферное давление.
Po - Атмосферное давление - измеренное на уровне метеостанции атмосферное давление.
Tmin - Минимальная температура - минимум температуры воздуха на высоте 2 м над землей.
Tmax - Максимальная температура - максимум температуры воздуха на высоте 2 м над землей.
R - Количество осадков - Количество выпавших осадков за период времени, мм. При наведении курсора мыши на число - период времени, за который выпало указанное количество осадков.
R24 - Количество осадков - Количество выпавших осадков за 24 часа, мм.
S - Снежный покров - Высота снежного покрова, см. При наведении курсора мыши на число - состояние снежного покрова и степень покрытия местности в баллах.